IUS DEB, 43367

Orbit data source: Space-Track

IUS DEB, 43367 is space debris originally from a launch on Fri, 23 Jul 1999 UTC launched from the Air Force Eastern Test Range (AFETR). Debris objects in space refer to the collection of defunct objects orbiting the Earth. Examples of debris include non-operational satellites, rocket bodies, and fragments generated from explosions, collisions, or faulty payload assembly.

Loading next visibility...
IUS DEB details
Identifier
43367, 1999-040Q
Orbit
Active
Last TLE update6 hours ago
Origin
Flag of USGSFC (US)
ManufacturerBoeing/Kent
MissionSpacecraft
Bus & MotorUnknown
MassUnknown
Launch date (UTC)
1999-07-23 (25 years ago)
Launch vehicleUnknown
Launch site
Air Force Eastern Test Range (AFETR)
Object type
Payload
Rocket body
Debris
Shape & HBRUnknown
Radar Cross SectionSmall (<0.1 m²)

Expand to show TLE details & history

TLE from 6 hours ago
0 IUS DEB
1 43367U 99040Q   24361.15158151  .00000038  00000-0  23208-3 0  9997
2 43367  28.1097  13.4140 3774675  93.5170 309.3846  7.00990804308819
Epoch: 2024-12-26T03:38Z
Definitive object data (Epoch: 2024-12-26T03:38:16.642Z)
Latitude-0.00003°
Longitude-136.29049°
Altitude3,741.372 km
Speed6.65 km/s
True Right ascension00h 53m 39s
True Declination0° 00' 00"
Sunlit
Object was in daylight at TLE epoch
Visualization TLE readout
Latitude-17.47312°
Longitude-172.68104°
Altitude6,994.962 km
Speed5.006 km/s
Apparent Right ascension22h 10m 34s
Apparent Declination-24° 44' 25"
Sunlit
Object is in daylight
Visualization observer readout
Local Sidereal Time09:24:42
Azimuth324.177° NNW
Elevation-72.031°
Doppler factor1
Orbital elements
Apogee altitude9,512.064 km
Perigee altitude803.279 km
Semi-major axis11,535.808 km
Eccentricity0.3774675
Inclination28.1097°
RAAN13.414°
Arg. of periapsis93.517°
True anomaly266.53029°
Mean anomaly309.3846°
Eccentric anomaly288.92659°
Mean motion1.75175 °/min
BSTAR0.00023208
Orbital period205.51 mins
Loading maneuver chart data...
Loading historical data...
Loading historical data...
Loading historical data...
Loading historical data...
Loading historical data...
Loading historical data...
Loading historical data...

IUS DEB Visibility forecast

Observer location: undefined°, undefined

Span
Click to sort rows by Start time (UTC) header in descending order
Start Az.
Max El. time (UTC)
Max El. Az.
Max El.
End time (UTC)
End Az.
9 mins2024-12-26 11:05:35.348Z221.135° SW2024-12-26 11:08:35.348Z191.783° SSW15.694°2024-12-26 11:14:35.348Z154.804° SSE
13 mins2024-12-27 03:43:35.348Z211.564° SW2024-12-27 03:51:35.348Z172.167° S19.897°2024-12-27 03:56:35.348Z126.423° SE
6 mins2024-12-27 07:26:35.348Z224.204° SW2024-12-27 07:29:35.348Z176.574° S22.129°2024-12-27 07:32:35.348Z133.023° SE
|